Year,Month,Day,Hour,Minute,Value (Times are PST for temperature in C)
2018,08,13,00,00,14.00
2018,08,13,00,01,14.00
2018,08,13,00,02,13.90
2018,08,13,00,03,13.90
2018,08,13,00,04,13.90
2018,08,13,00,05,13.90
2018,08,13,00,06,13.90
2018,08,13,00,07,13.90
2018,08,13,00,08,13.80
2018,08,13,00,09,13.80
2018,08,13,00,10,13.80
2018,08,13,00,11,13.80
2018,08,13,00,12,13.80
2018,08,13,00,13,13.80
2018,08,13,00,14,13.80
2018,08,13,00,15,13.70
2018,08,13,00,16,13.70
2018,08,13,00,17,13.70
2018,08,13,00,18,13.70
2018,08,13,00,19,13.70
2018,08,13,00,20,13.70
2018,08,13,00,21,13.60
2018,08,13,00,22,13.60
2018,08,13,00,23,13.60
2018,08,13,00,24,13.60
2018,08,13,00,25,13.60
2018,08,13,00,26,13.60
2018,08,13,00,27,13.50
2018,08,13,00,28,13.50
2018,08,13,00,29,13.50
2018,08,13,00,30,13.50
2018,08,13,00,31,13.40
2018,08,13,00,32,13.40
2018,08,13,00,33,13.40
2018,08,13,00,34,13.40
2018,08,13,00,35,13.40
2018,08,13,00,36,13.40
2018,08,13,00,37,13.40
2018,08,13,00,38,13.30
2018,08,13,00,39,13.30
2018,08,13,00,40,13.30
2018,08,13,00,41,13.30
2018,08,13,00,42,13.30
2018,08,13,00,43,13.30
2018,08,13,00,44,13.30
2018,08,13,00,45,13.30
2018,08,13,00,46,13.30
2018,08,13,00,47,13.30
2018,08,13,00,48,13.30
2018,08,13,00,49,13.20
2018,08,13,00,50,13.20
2018,08,13,00,51,13.20
2018,08,13,00,52,13.20
2018,08,13,00,53,13.20
2018,08,13,00,54,13.20
2018,08,13,00,55,13.20
2018,08,13,00,56,13.20
2018,08,13,00,57,13.20
2018,08,13,00,58,13.10
2018,08,13,00,59,13.10
2018,08,13,01,00,13.10
2018,08,13,01,01,13.10
2018,08,13,01,02,13.10
2018,08,13,01,03,13.10
2018,08,13,01,04,13.10
2018,08,13,01,05,13.10
2018,08,13,01,06,13.10
2018,08,13,01,07,13.10
2018,08,13,01,08,13.00
2018,08,13,01,09,13.00
2018,08,13,01,10,13.00
2018,08,13,01,11,13.00
2018,08,13,01,12,13.00
2018,08,13,01,13,12.90
2018,08,13,01,14,12.90
2018,08,13,01,15,12.90
2018,08,13,01,16,12.90
2018,08,13,01,17,12.90
2018,08,13,01,18,12.90
2018,08,13,01,19,12.90
2018,08,13,01,20,12.90
2018,08,13,01,21,12.90
2018,08,13,01,22,12.80
2018,08,13,01,23,12.80
2018,08,13,01,24,12.80
2018,08,13,01,25,12.80
2018,08,13,01,26,12.80
2018,08,13,01,27,12.80
2018,08,13,01,28,12.80
2018,08,13,01,29,12.80
2018,08,13,01,30,12.80
2018,08,13,01,31,12.80
2018,08,13,01,32,12.70
2018,08,13,01,33,12.70
2018,08,13,01,34,12.70
2018,08,13,01,35,12.70
2018,08,13,01,36,12.70
2018,08,13,01,37,12.70
2018,08,13,01,38,12.70
2018,08,13,01,39,12.70
2018,08,13,01,40,12.70
2018,08,13,01,41,12.70
2018,08,13,01,42,12.70
2018,08,13,01,43,12.60
2018,08,13,01,44,12.60
2018,08,13,01,45,12.60
2018,08,13,01,46,12.60
2018,08,13,01,47,12.60
2018,08,13,01,48,12.60
2018,08,13,01,49,12.60
2018,08,13,01,50,12.60
2018,08,13,01,51,12.60
2018,08,13,01,52,12.60
2018,08,13,01,53,12.50
2018,08,13,01,54,12.50
2018,08,13,01,55,12.50
2018,08,13,01,56,12.50
2018,08,13,01,57,12.40
2018,08,13,01,58,12.40
2018,08,13,01,59,12.40
2018,08,13,02,00,12.40
2018,08,13,02,01,12.40
2018,08,13,02,02,12.40
2018,08,13,02,03,12.40
2018,08,13,02,04,12.40
2018,08,13,02,05,12.40
2018,08,13,02,06,12.40
2018,08,13,02,07,12.30
2018,08,13,02,08,12.30
2018,08,13,02,09,12.30
2018,08,13,02,10,12.30
2018,08,13,02,11,12.30
2018,08,13,02,12,12.30
2018,08,13,02,13,12.30
2018,08,13,02,14,12.30
2018,08,13,02,15,12.30
2018,08,13,02,16,12.30
2018,08,13,02,17,12.30
2018,08,13,02,18,12.30
2018,08,13,02,19,12.30
2018,08,13,02,20,12.30
2018,08,13,02,21,12.30
2018,08,13,02,22,12.20
2018,08,13,02,23,12.20
2018,08,13,02,24,12.20
2018,08,13,02,25,12.20
2018,08,13,02,26,12.20
2018,08,13,02,27,12.20
2018,08,13,02,28,12.20
2018,08,13,02,29,12.20
2018,08,13,02,30,12.20
2018,08,13,02,31,12.20
2018,08,13,02,32,12.20
2018,08,13,02,33,12.20
2018,08,13,02,34,12.20
2018,08,13,02,35,12.20
2018,08,13,02,36,12.20
2018,08,13,02,37,12.20
2018,08,13,02,38,12.20
2018,08,13,02,39,12.20
2018,08,13,02,40,12.10
2018,08,13,02,41,12.10
2018,08,13,02,42,12.10
2018,08,13,02,43,12.10
2018,08,13,02,44,12.10
2018,08,13,02,45,12.10
2018,08,13,02,46,12.00
2018,08,13,02,47,12.00
2018,08,13,02,48,12.00
2018,08,13,02,49,12.00
2018,08,13,02,50,12.00
2018,08,13,02,51,12.00
2018,08,13,02,52,12.00
2018,08,13,02,53,11.90
2018,08,13,02,54,11.90
2018,08,13,02,55,11.90
2018,08,13,02,56,11.90
2018,08,13,02,57,11.90
2018,08,13,02,58,11.90
2018,08,13,02,59,11.90
2018,08,13,03,00,11.90
2018,08,13,03,01,11.90
2018,08,13,03,02,11.90
2018,08,13,03,03,11.90
2018,08,13,03,04,11.90
2018,08,13,03,05,11.90
2018,08,13,03,06,11.80
2018,08,13,03,07,11.80
2018,08,13,03,08,11.80
2018,08,13,03,09,11.80
2018,08,13,03,10,11.80
2018,08,13,03,11,11.80
2018,08,13,03,12,11.80
2018,08,13,03,13,11.80
2018,08,13,03,14,11.80
2018,08,13,03,15,11.80
2018,08,13,03,16,11.80
2018,08,13,03,17,11.70
2018,08,13,03,18,11.70
2018,08,13,03,19,11.70
2018,08,13,03,20,11.70
2018,08,13,03,21,11.70
2018,08,13,03,22,11.70
2018,08,13,03,23,11.70
2018,08,13,03,24,11.70
2018,08,13,03,25,11.70
2018,08,13,03,26,11.70
2018,08,13,03,27,11.70
2018,08,13,03,28,11.70
2018,08,13,03,29,11.70
2018,08,13,03,30,11.70
2018,08,13,03,31,11.70
2018,08,13,03,32,11.70
2018,08,13,03,33,11.70
2018,08,13,03,34,11.70
2018,08,13,03,35,11.70
2018,08,13,03,36,11.60
2018,08,13,03,37,11.70
2018,08,13,03,38,11.70
2018,08,13,03,39,11.70
2018,08,13,03,40,11.70
2018,08,13,03,41,11.70
2018,08,13,03,42,11.70
2018,08,13,03,43,11.70
2018,08,13,03,44,11.70
2018,08,13,03,45,11.70
2018,08,13,03,46,11.70
2018,08,13,03,47,11.70
2018,08,13,03,48,11.70
2018,08,13,03,49,11.70
2018,08,13,03,50,11.70
2018,08,13,03,51,11.70
2018,08,13,03,52,11.70
2018,08,13,03,53,11.70
2018,08,13,03,54,11.70
2018,08,13,03,55,11.70
2018,08,13,03,56,11.70
2018,08,13,03,57,11.70
2018,08,13,03,58,11.70
2018,08,13,03,59,11.70
2018,08,13,04,00,11.70
2018,08,13,04,01,11.70
2018,08,13,04,02,11.70
2018,08,13,04,03,11.80
2018,08,13,04,04,11.80
2018,08,13,04,05,11.80
2018,08,13,04,06,11.80
2018,08,13,04,07,11.80
2018,08,13,04,08,11.80
2018,08,13,04,09,11.80
2018,08,13,04,10,11.80
2018,08,13,04,11,11.90
2018,08,13,04,12,11.90
2018,08,13,04,13,11.90
2018,08,13,04,14,11.90
2018,08,13,04,15,11.90
2018,08,13,04,16,11.90
2018,08,13,04,17,11.90
2018,08,13,04,18,11.90
2018,08,13,04,19,11.90
2018,08,13,04,20,11.90
2018,08,13,04,21,11.90
2018,08,13,04,22,11.90
2018,08,13,04,23,11.90
2018,08,13,04,24,11.90
2018,08,13,04,25,11.90
2018,08,13,04,26,11.90
2018,08,13,04,27,11.90
2018,08,13,04,28,11.90
2018,08,13,04,29,11.90
2018,08,13,04,30,11.90
2018,08,13,04,31,11.90
2018,08,13,04,32,11.90
2018,08,13,04,33,11.90
2018,08,13,04,34,11.90
2018,08,13,04,35,11.90
2018,08,13,04,36,11.90
2018,08,13,04,37,11.90
2018,08,13,04,38,12.00
2018,08,13,04,39,12.00
2018,08,13,04,40,12.00
2018,08,13,04,41,12.00
2018,08,13,04,42,12.00
2018,08,13,04,43,12.00
2018,08,13,04,44,12.00
2018,08,13,04,45,12.00
2018,08,13,04,46,12.00
2018,08,13,04,47,12.00
2018,08,13,04,48,12.00
2018,08,13,04,49,12.10
2018,08,13,04,50,12.00
2018,08,13,04,51,12.00
2018,08,13,04,52,12.00
2018,08,13,04,53,12.00
2018,08,13,04,54,12.00
2018,08,13,04,55,12.00
2018,08,13,04,56,12.00
2018,08,13,04,57,12.00
2018,08,13,04,58,12.00
2018,08,13,04,59,11.90
2018,08,13,05,00,11.90
2018,08,13,05,01,11.90
2018,08,13,05,02,11.90
2018,08,13,05,03,11.90
2018,08,13,05,04,11.90
2018,08,13,05,05,11.80
2018,08,13,05,06,11.80
2018,08,13,05,07,11.80
2018,08,13,05,08,11.80
2018,08,13,05,09,11.80
2018,08,13,05,10,11.80
2018,08,13,05,11,11.80
2018,08,13,05,12,11.80
2018,08,13,05,13,11.80
2018,08,13,05,14,11.80
2018,08,13,05,15,11.80
2018,08,13,05,16,11.70
2018,08,13,05,17,11.70
2018,08,13,05,18,11.70
2018,08,13,05,19,11.70
2018,08,13,05,20,11.70
2018,08,13,05,21,11.70
2018,08,13,05,22,11.70
2018,08,13,05,23,11.70
2018,08,13,05,24,11.70
2018,08,13,05,25,11.70
2018,08,13,05,26,11.60
2018,08,13,05,27,11.60
2018,08,13,05,28,11.60
2018,08,13,05,29,11.60
2018,08,13,05,30,11.60
2018,08,13,05,31,11.60
2018,08,13,05,32,11.60
2018,08,13,05,33,11.60
2018,08,13,05,34,11.60
2018,08,13,05,35,11.60
2018,08,13,05,36,11.50
2018,08,13,05,37,11.50
2018,08,13,05,38,11.50
2018,08,13,05,39,11.50
2018,08,13,05,40,11.40
2018,08,13,05,41,11.40
2018,08,13,05,42,11.40
2018,08,13,05,43,11.40
2018,08,13,05,44,11.40
2018,08,13,05,45,11.40
2018,08,13,05,46,11.40
2018,08,13,05,47,11.40
2018,08,13,05,48,11.40
2018,08,13,05,49,11.40
2018,08,13,05,50,11.30
2018,08,13,05,51,11.30
2018,08,13,05,52,11.30
2018,08,13,05,53,11.30
2018,08,13,05,54,11.30
2018,08,13,05,55,11.30
2018,08,13,05,56,11.30
2018,08,13,05,57,11.30
2018,08,13,05,58,11.30
2018,08,13,05,59,11.30
2018,08,13,06,00,11.30
2018,08,13,06,01,11.30
2018,08,13,06,02,11.20
2018,08,13,06,03,11.30
2018,08,13,06,04,11.20
2018,08,13,06,05,11.20
2018,08,13,06,06,11.20
2018,08,13,06,07,11.20
2018,08,13,06,08,11.20
2018,08,13,06,09,11.20
2018,08,13,06,10,11.20
2018,08,13,06,11,11.20
2018,08,13,06,12,11.20
2018,08,13,06,13,11.20
2018,08,13,06,14,11.20
2018,08,13,06,15,11.20
2018,08,13,06,16,11.20
2018,08,13,06,17,11.20
2018,08,13,06,18,11.30
2018,08,13,06,19,11.30
2018,08,13,06,20,11.30
2018,08,13,06,21,11.30
2018,08,13,06,22,11.30
2018,08,13,06,23,11.30
2018,08,13,06,24,11.30
2018,08,13,06,25,11.30
2018,08,13,06,26,11.30
2018,08,13,06,27,11.30
2018,08,13,06,28,11.30
2018,08,13,06,29,11.30
2018,08,13,06,30,11.30
2018,08,13,06,31,11.30
2018,08,13,06,32,11.30
2018,08,13,06,33,11.30
2018,08,13,06,34,11.30
2018,08,13,06,35,11.30
2018,08,13,06,36,11.20
2018,08,13,06,37,11.20
2018,08,13,06,38,11.20
2018,08,13,06,39,11.20
2018,08,13,06,40,11.20
2018,08,13,06,41,11.20
2018,08,13,06,42,11.20
2018,08,13,06,43,11.20
2018,08,13,06,44,11.20
2018,08,13,06,45,11.20
2018,08,13,06,46,11.20
2018,08,13,06,47,11.20
2018,08,13,06,48,11.20
2018,08,13,06,49,11.20
2018,08,13,06,50,11.20
2018,08,13,06,51,11.20
2018,08,13,06,52,11.10
2018,08,13,06,53,11.10
2018,08,13,06,54,11.10
2018,08,13,06,55,11.10
2018,08,13,06,56,11.10
2018,08,13,06,57,11.10
2018,08,13,06,58,11.10
2018,08,13,06,59,11.10
2018,08,13,07,00,11.10
2018,08,13,07,01,11.10
2018,08,13,07,02,11.10
2018,08,13,07,03,11.10
2018,08,13,07,04,11.10
2018,08,13,07,05,11.10
2018,08,13,07,06,11.10
2018,08,13,07,07,11.10
2018,08,13,07,08,11.10
2018,08,13,07,09,11.10
2018,08,13,07,10,11.10
2018,08,13,07,11,11.10
2018,08,13,07,12,11.10
2018,08,13,07,13,11.10
2018,08,13,07,14,11.10
2018,08,13,07,15,11.10
2018,08,13,07,16,11.10
2018,08,13,07,17,11.10
2018,08,13,07,18,11.10
2018,08,13,07,19,11.10
2018,08,13,07,20,11.10
2018,08,13,07,21,11.10
2018,08,13,07,22,11.10
2018,08,13,07,23,11.10
2018,08,13,07,24,11.10
2018,08,13,07,25,11.10
2018,08,13,07,26,11.10
2018,08,13,07,27,11.10
2018,08,13,07,28,11.10
2018,08,13,07,29,11.10
2018,08,13,07,30,11.10
2018,08,13,07,31,11.10
2018,08,13,07,32,11.20
2018,08,13,07,33,11.20
2018,08,13,07,34,11.20
2018,08,13,07,35,11.20
2018,08,13,07,36,11.20
2018,08,13,07,37,11.20
2018,08,13,07,38,11.20
2018,08,13,07,39,11.20
2018,08,13,07,40,11.20
2018,08,13,07,41,11.20
2018,08,13,07,42,11.20
2018,08,13,07,43,11.20
2018,08,13,07,44,11.30
2018,08,13,07,45,11.30
2018,08,13,07,46,11.30
2018,08,13,07,47,11.30
2018,08,13,07,48,11.30
2018,08,13,07,49,11.30
2018,08,13,07,50,11.30
2018,08,13,07,51,11.30
2018,08,13,07,52,11.30
2018,08,13,07,53,11.30
2018,08,13,07,54,11.40
2018,08,13,07,55,11.40
2018,08,13,07,56,11.50
2018,08,13,07,57,11.50
2018,08,13,07,58,11.60
2018,08,13,07,59,11.60
2018,08,13,08,00,11.60
2018,08,13,08,01,11.70
2018,08,13,08,02,11.70
2018,08,13,08,03,11.70
2018,08,13,08,04,11.80
2018,08,13,08,05,11.80
2018,08,13,08,06,11.80
2018,08,13,08,07,11.90
2018,08,13,08,08,12.00
2018,08,13,08,09,12.00
2018,08,13,08,10,12.10
2018,08,13,08,11,12.10
2018,08,13,08,12,12.20
2018,08,13,08,13,12.20
2018,08,13,08,14,12.30
2018,08,13,08,15,12.30
2018,08,13,08,16,12.40
2018,08,13,08,17,12.40
2018,08,13,08,18,12.40
2018,08,13,08,19,12.50
2018,08,13,08,20,12.50
2018,08,13,08,21,12.60
2018,08,13,08,22,12.60
2018,08,13,08,23,12.70
2018,08,13,08,24,12.70
2018,08,13,08,25,12.80
2018,08,13,08,26,12.80
2018,08,13,08,27,12.80
2018,08,13,08,28,12.80
2018,08,13,08,29,12.90
2018,08,13,08,30,12.90
2018,08,13,08,31,13.00
2018,08,13,08,32,13.00
2018,08,13,08,33,13.10
2018,08,13,08,34,13.10
2018,08,13,08,35,13.20
2018,08,13,08,36,13.20
2018,08,13,08,37,13.30
2018,08,13,08,38,13.40
2018,08,13,08,39,13.40
2018,08,13,08,40,13.40
2018,08,13,08,41,13.50
2018,08,13,08,42,13.50
2018,08,13,08,43,13.50
2018,08,13,08,44,13.50
2018,08,13,08,45,13.60
2018,08,13,08,46,13.60
2018,08,13,08,47,13.60
2018,08,13,08,48,13.60
2018,08,13,08,49,13.70
2018,08,13,08,50,13.70
2018,08,13,08,51,13.80
2018,08,13,08,52,13.80
2018,08,13,08,53,13.80
2018,08,13,08,54,13.80
2018,08,13,08,55,13.90
2018,08,13,08,56,13.90
2018,08,13,08,57,14.00
2018,08,13,08,58,14.00
2018,08,13,08,59,14.10
2018,08,13,09,00,14.20
2018,08,13,09,01,14.20
2018,08,13,09,02,14.30
2018,08,13,09,03,14.40
2018,08,13,09,04,14.40
2018,08,13,09,05,14.50
2018,08,13,09,06,14.50
2018,08,13,09,07,14.50
2018,08,13,09,08,14.50
2018,08,13,09,09,14.60
2018,08,13,09,10,14.60
2018,08,13,09,11,14.60
2018,08,13,09,12,14.60
2018,08,13,09,13,14.70
2018,08,13,09,14,14.70
2018,08,13,09,15,14.70
2018,08,13,09,16,14.80
2018,08,13,09,17,14.80
2018,08,13,09,18,14.80
2018,08,13,09,19,14.80
2018,08,13,09,20,14.90
2018,08,13,09,21,14.90
2018,08,13,09,22,14.90
2018,08,13,09,23,14.90
2018,08,13,09,24,14.90
2018,08,13,09,25,15.00
2018,08,13,09,26,15.00
2018,08,13,09,27,15.00
2018,08,13,09,28,15.00
2018,08,13,09,29,15.10
2018,08,13,09,30,15.10
2018,08,13,09,31,15.20
2018,08,13,09,32,15.20
2018,08,13,09,33,15.20
2018,08,13,09,34,15.30
2018,08,13,09,35,15.30
2018,08,13,09,36,15.30
2018,08,13,09,37,15.40
2018,08,13,09,38,15.40
2018,08,13,09,39,15.40
2018,08,13,09,40,15.40
2018,08,13,09,41,15.50
2018,08,13,09,42,15.50
2018,08,13,09,43,15.60
2018,08,13,09,44,15.60
2018,08,13,09,45,15.60
2018,08,13,09,46,15.60
2018,08,13,09,47,15.70
2018,08,13,09,48,15.70
2018,08,13,09,49,15.70
2018,08,13,09,50,15.70
2018,08,13,09,51,15.80
2018,08,13,09,52,15.80
2018,08,13,09,53,15.80
2018,08,13,09,54,15.80
2018,08,13,09,55,15.90
2018,08,13,09,56,15.90
2018,08,13,09,57,16.00
2018,08,13,09,58,16.00
2018,08,13,09,59,16.10
2018,08,13,10,00,16.20
2018,08,13,10,01,16.30
2018,08,13,10,02,16.40
2018,08,13,10,03,16.50
2018,08,13,10,04,16.50
2018,08,13,10,05,16.60
2018,08,13,10,06,16.70
2018,08,13,10,07,16.80
2018,08,13,10,08,16.90
2018,08,13,10,09,17.00
2018,08,13,10,10,17.10
2018,08,13,10,11,17.20
2018,08,13,10,12,17.30
2018,08,13,10,13,17.30
2018,08,13,10,14,17.30
2018,08,13,10,15,17.30
2018,08,13,10,16,17.30
2018,08,13,10,17,17.30
2018,08,13,10,18,17.30
2018,08,13,10,19,17.40
2018,08,13,10,20,17.40
2018,08,13,10,21,17.50
2018,08,13,10,22,17.50
2018,08,13,10,23,17.50
2018,08,13,10,24,17.50
2018,08,13,10,25,17.50
2018,08,13,10,26,17.50
2018,08,13,10,27,17.50
2018,08,13,10,28,17.50
2018,08,13,10,29,17.50
2018,08,13,10,30,17.50
2018,08,13,10,31,17.50
2018,08,13,10,32,17.60
2018,08,13,10,33,17.60
2018,08,13,10,34,17.60
2018,08,13,10,35,17.70
2018,08,13,10,36,17.70
2018,08,13,10,37,17.80
2018,08,13,10,38,17.80
2018,08,13,10,39,17.80
2018,08,13,10,40,17.90
2018,08,13,10,41,17.90
2018,08,13,10,42,18.00
2018,08,13,10,43,18.10
2018,08,13,10,44,18.20
2018,08,13,10,45,18.30
2018,08,13,10,46,18.40
2018,08,13,10,47,18.50
2018,08,13,10,48,18.60
2018,08,13,10,49,18.60
2018,08,13,10,50,18.70
2018,08,13,10,51,18.70
2018,08,13,10,52,18.70
2018,08,13,10,53,18.70
2018,08,13,10,54,18.60
2018,08,13,10,55,18.60
2018,08,13,10,56,18.70
2018,08,13,10,57,18.70
2018,08,13,10,58,18.80
2018,08,13,10,59,18.80
2018,08,13,11,00,18.80
2018,08,13,11,01,18.90
2018,08,13,11,02,18.90
2018,08,13,11,03,18.90
2018,08,13,11,04,18.90
2018,08,13,11,05,18.90
2018,08,13,11,06,19.00
2018,08,13,11,07,19.00
2018,08,13,11,08,19.00
2018,08,13,11,09,19.10
2018,08,13,11,10,19.10
2018,08,13,11,11,19.10
2018,08,13,11,12,19.20
2018,08,13,11,13,19.20
2018,08,13,11,14,19.30
2018,08,13,11,15,19.30
2018,08,13,11,16,19.30
2018,08,13,11,17,19.40
2018,08,13,11,18,19.40
2018,08,13,11,19,19.40
2018,08,13,11,20,19.40
2018,08,13,11,21,19.50
2018,08,13,11,22,19.50
2018,08,13,11,23,19.50
2018,08,13,11,24,19.50
2018,08,13,11,25,19.50
2018,08,13,11,26,19.60
2018,08,13,11,27,19.60
2018,08,13,11,28,19.60
2018,08,13,11,29,19.70
2018,08,13,11,30,19.70
2018,08,13,11,31,19.70
2018,08,13,11,32,19.70
2018,08,13,11,33,19.70
2018,08,13,11,34,19.80
2018,08,13,11,35,19.80
2018,08,13,11,36,19.80
2018,08,13,11,37,19.90
2018,08,13,11,38,19.90
2018,08,13,11,39,20.00
2018,08,13,11,40,20.10
2018,08,13,11,41,20.10
2018,08,13,11,42,20.20
2018,08,13,11,43,20.20
2018,08,13,11,44,20.30
2018,08,13,11,45,20.30
2018,08,13,11,46,20.40
2018,08,13,11,47,20.50
2018,08,13,11,48,20.60
2018,08,13,11,49,20.60
2018,08,13,11,50,20.70
2018,08,13,11,51,20.70
2018,08,13,11,52,20.70
2018,08,13,11,53,20.80
2018,08,13,11,54,20.90
2018,08,13,11,55,20.90
2018,08,13,11,56,20.90
2018,08,13,11,57,21.00
2018,08,13,11,58,21.00
2018,08,13,11,59,21.00
2018,08,13,12,00,21.00
2018,08,13,12,01,21.00
2018,08,13,12,02,21.10
2018,08,13,12,03,21.10
2018,08,13,12,04,21.20
2018,08,13,12,05,21.20
2018,08,13,12,06,21.30
2018,08,13,12,07,21.30
2018,08,13,12,08,21.30
2018,08,13,12,09,21.30
2018,08,13,12,10,21.30
2018,08,13,12,11,21.40
2018,08,13,12,12,21.40
2018,08,13,12,13,21.40
2018,08,13,12,14,21.50
2018,08,13,12,15,21.50
2018,08,13,12,16,21.60
2018,08,13,12,17,21.70
2018,08,13,12,18,21.80
2018,08,13,12,19,21.80
2018,08,13,12,20,21.90
2018,08,13,12,21,22.00
2018,08,13,12,22,22.00
2018,08,13,12,23,22.00
2018,08,13,12,24,22.10
2018,08,13,12,25,22.10
2018,08,13,12,26,22.20
2018,08,13,12,27,22.20
2018,08,13,12,28,22.30
2018,08,13,12,29,22.40
2018,08,13,12,30,22.40
2018,08,13,12,31,22.40
2018,08,13,12,32,22.50
2018,08,13,12,33,22.50
2018,08,13,12,34,22.60
2018,08,13,12,35,22.60
2018,08,13,12,36,22.60
2018,08,13,12,37,22.70
2018,08,13,12,38,22.70
2018,08,13,12,39,22.80
2018,08,13,12,40,22.80
2018,08,13,12,41,22.90
2018,08,13,12,42,23.00
2018,08,13,12,43,23.10
2018,08,13,12,44,23.10
2018,08,13,12,45,23.10
2018,08,13,12,46,23.20
2018,08,13,12,47,23.10
2018,08,13,12,48,23.10
2018,08,13,12,49,23.10
2018,08,13,12,50,23.10
2018,08,13,12,51,23.10
2018,08,13,12,52,23.00
2018,08,13,12,53,23.10
2018,08,13,12,54,23.10
2018,08,13,12,55,23.10
2018,08,13,12,56,23.20
2018,08,13,12,57,23.20
2018,08,13,12,58,23.40
2018,08,13,12,59,23.50
2018,08,13,13,00,23.60
2018,08,13,13,01,23.70
2018,08,13,13,02,23.80
2018,08,13,13,03,23.90
2018,08,13,13,04,24.00
2018,08,13,13,05,24.10
2018,08,13,13,06,24.10
2018,08,13,13,07,24.10
2018,08,13,13,08,24.20
2018,08,13,13,09,24.20
2018,08,13,13,10,24.30
2018,08,13,13,11,24.40
2018,08,13,13,12,24.40
2018,08,13,13,13,24.50
2018,08,13,13,14,24.50
2018,08,13,13,15,24.60
2018,08,13,13,16,24.60
2018,08,13,13,17,24.60
2018,08,13,13,18,24.50
2018,08,13,13,19,24.50
2018,08,13,13,20,24.40
2018,08,13,13,21,24.40
2018,08,13,13,22,24.40
2018,08,13,13,23,24.40
2018,08,13,13,24,24.40
2018,08,13,13,25,24.50
2018,08,13,13,26,24.50
2018,08,13,13,27,24.50
2018,08,13,13,28,24.60
2018,08,13,13,29,24.60
2018,08,13,13,30,24.60
2018,08,13,13,31,24.60
2018,08,13,13,32,24.60
2018,08,13,13,33,24.80
2018,08,13,13,34,24.90
2018,08,13,13,35,25.00
2018,08,13,13,36,25.10
2018,08,13,13,37,25.20
2018,08,13,13,38,25.30
2018,08,13,13,39,25.30
2018,08,13,13,40,25.30
2018,08,13,13,41,25.40
2018,08,13,13,42,25.40
2018,08,13,13,43,25.50
2018,08,13,13,44,25.50
2018,08,13,13,45,25.60
2018,08,13,13,46,25.60
2018,08,13,13,47,25.60
2018,08,13,13,48,25.60
2018,08,13,13,49,25.70
2018,08,13,13,50,25.70
2018,08,13,13,51,25.70
2018,08,13,13,52,25.80
2018,08,13,13,53,25.80
2018,08,13,13,54,25.90
2018,08,13,13,55,26.00
2018,08,13,13,56,26.10
2018,08,13,13,57,26.20
2018,08,13,13,58,26.20
2018,08,13,13,59,26.20
2018,08,13,14,00,26.20
2018,08,13,14,01,26.20
2018,08,13,14,02,26.20
2018,08,13,14,03,26.20
2018,08,13,14,04,26.20
2018,08,13,14,05,26.20
2018,08,13,14,06,26.20
2018,08,13,14,07,26.30
2018,08,13,14,08,26.40
2018,08,13,14,09,26.40
2018,08,13,14,10,26.40
2018,08,13,14,11,26.30
2018,08,13,14,12,26.30
2018,08,13,14,13,26.40
2018,08,13,14,14,26.40
2018,08,13,14,15,26.40
2018,08,13,14,16,26.50
2018,08,13,14,17,26.50
2018,08,13,14,18,26.50
2018,08,13,14,19,26.50
2018,08,13,14,20,26.50
2018,08,13,14,21,26.60
2018,08,13,14,22,26.60
2018,08,13,14,23,26.60
2018,08,13,14,24,26.60
2018,08,13,14,25,26.70
2018,08,13,14,26,26.70
2018,08,13,14,27,26.80
2018,08,13,14,28,26.80
2018,08,13,14,29,26.80
2018,08,13,14,30,26.90
2018,08,13,14,31,27.00
2018,08,13,14,32,27.10
2018,08,13,14,33,27.20
2018,08,13,14,34,27.30
2018,08,13,14,35,27.40
2018,08,13,14,36,27.30
2018,08,13,14,37,27.30
2018,08,13,14,38,27.30
2018,08,13,14,39,27.40
2018,08,13,14,40,27.50
2018,08,13,14,41,27.60
2018,08,13,14,42,27.70
2018,08,13,14,43,27.80
2018,08,13,14,44,27.80
2018,08,13,14,45,27.80
2018,08,13,14,46,27.80
2018,08,13,14,47,27.80
2018,08,13,14,48,27.90
2018,08,13,14,49,28.00
2018,08,13,14,50,28.10
2018,08,13,14,51,28.20
2018,08,13,14,52,28.30
2018,08,13,14,53,28.30
2018,08,13,14,54,28.30
2018,08,13,14,55,28.30
2018,08,13,14,56,28.40
2018,08,13,14,57,28.40
2018,08,13,14,58,28.50
2018,08,13,14,59,28.60
2018,08,13,15,00,28.70
2018,08,13,15,01,28.80
2018,08,13,15,02,28.80
2018,08,13,15,03,28.90
2018,08,13,15,04,28.90
2018,08,13,15,05,28.90
2018,08,13,15,06,29.00
2018,08,13,15,07,29.00
2018,08,13,15,08,29.00
2018,08,13,15,09,29.00
2018,08,13,15,10,28.90
2018,08,13,15,11,28.90
2018,08,13,15,12,28.90
2018,08,13,15,13,28.90
2018,08,13,15,14,28.90
2018,08,13,15,15,28.80
2018,08,13,15,16,28.80
2018,08,13,15,17,28.70
2018,08,13,15,18,28.70
2018,08,13,15,19,28.70
2018,08,13,15,20,28.70
2018,08,13,15,21,28.80
2018,08,13,15,22,28.80
2018,08,13,15,23,28.90
2018,08,13,15,24,29.00
2018,08,13,15,25,29.10
2018,08,13,15,26,29.10
2018,08,13,15,27,29.10
2018,08,13,15,28,29.10
2018,08,13,15,29,29.10
2018,08,13,15,30,29.00
2018,08,13,15,31,29.00
2018,08,13,15,32,29.00
2018,08,13,15,33,29.10
2018,08,13,15,34,29.10
2018,08,13,15,35,29.10
2018,08,13,15,36,29.10
2018,08,13,15,37,29.10
2018,08,13,15,38,29.10
2018,08,13,15,39,29.10
2018,08,13,15,40,29.10
2018,08,13,15,41,29.10
2018,08,13,15,42,29.10
2018,08,13,15,43,29.10
2018,08,13,15,44,29.00
2018,08,13,15,45,29.00
2018,08,13,15,46,29.00
2018,08,13,15,47,29.00
2018,08,13,15,48,29.00
2018,08,13,15,49,29.10
2018,08,13,15,50,29.10
2018,08,13,15,51,29.30
2018,08,13,15,52,29.30
2018,08,13,15,53,29.40
2018,08,13,15,54,29.50
2018,08,13,15,55,29.50
2018,08,13,15,56,29.60
2018,08,13,15,57,29.60
2018,08,13,15,58,29.70
2018,08,13,15,59,29.80
2018,08,13,16,00,29.80
2018,08,13,16,01,29.80
2018,08,13,16,02,29.80
2018,08,13,16,03,29.90
2018,08,13,16,04,30.00
2018,08,13,16,05,30.10
2018,08,13,16,06,30.10
2018,08,13,16,07,30.20
2018,08,13,16,08,30.30
2018,08,13,16,09,30.30
2018,08,13,16,10,30.30
2018,08,13,16,11,30.30
2018,08,13,16,12,30.30
2018,08,13,16,13,30.40
2018,08,13,16,14,30.40
2018,08,13,16,15,30.50
2018,08,13,16,16,30.60
2018,08,13,16,17,30.60
2018,08,13,16,18,30.60
2018,08,13,16,19,30.60
2018,08,13,16,20,30.60
2018,08,13,16,21,30.50
2018,08,13,16,22,30.40
2018,08,13,16,23,30.40
2018,08,13,16,24,30.40
2018,08,13,16,25,30.40
2018,08,13,16,26,30.40
2018,08,13,16,27,30.50
2018,08,13,16,28,30.50
2018,08,13,16,29,30.60
2018,08,13,16,30,30.80
2018,08,13,16,31,30.90
2018,08,13,16,32,31.00
2018,08,13,16,33,31.10
2018,08,13,16,34,31.20
2018,08,13,16,35,31.20
2018,08,13,16,36,31.20
2018,08,13,16,37,31.20
2018,08,13,16,38,31.10
2018,08,13,16,39,30.90
2018,08,13,16,40,30.70
2018,08,13,16,41,30.60
2018,08,13,16,42,30.50
2018,08,13,16,43,30.30
2018,08,13,16,44,30.20
2018,08,13,16,45,30.10
2018,08,13,16,46,30.00
2018,08,13,16,47,29.90
2018,08,13,16,48,29.80
2018,08,13,16,49,29.80
2018,08,13,16,50,29.80
2018,08,13,16,51,29.80
2018,08,13,16,52,29.80
2018,08,13,16,53,29.80
2018,08,13,16,54,29.80
2018,08,13,16,55,29.80
2018,08,13,16,56,29.70
2018,08,13,16,57,29.70
2018,08,13,16,58,29.70
2018,08,13,16,59,29.70
2018,08,13,17,00,29.70
2018,08,13,17,01,29.70
2018,08,13,17,02,29.70
2018,08,13,17,03,29.70
2018,08,13,17,04,29.70
2018,08,13,17,05,29.70
2018,08,13,17,06,29.70
2018,08,13,17,07,29.70
2018,08,13,17,08,29.70
2018,08,13,17,09,29.70
2018,08,13,17,10,29.60
2018,08,13,17,11,29.60
2018,08,13,17,12,29.50
2018,08,13,17,13,29.40
2018,08,13,17,14,29.40
2018,08,13,17,15,29.40
2018,08,13,17,16,29.30
2018,08,13,17,17,29.30
2018,08,13,17,18,29.30
2018,08,13,17,19,29.20